Willimantic, CT

5:06 PM EST on December 07, 2019 (GMT -0500)
Windham

Weather History for KIJD - June, 2019

Change the Weather History Date:

Thursday, June 6, 2019

  Actual Average Record
Temperature  
Mean Temperature 74 °F -  
Max Temperature 82 °F 75 °F 91 °F (1953)
Min Temperature 64 °F 50 °F 31 °F (1964)
Cooling Degree Days 8    
Growing Degree Days 24 (Base 50)    
Moisture  
Dew Point 63 °F    
Average Humidity 76    
Maximum Humidity 93    
Minimum Humidity 45    
Precipitation  
Precipitation 0.00 in - - ()
Sea Level Pressure  
Sea Level Pressure 29.71 in    
Wind  
Wind Speed 7 mph ()    
Max Wind Speed 13 mph    
Max Gust Speed 20 mph    
Visibility 9.7 miles    
Events Rain    
Averages and records for this station are not official NWS values.
T = Trace of Precipitation, MM = Missing Value Source: Averaged Metar Reports

Daily Weather History Graph

Daily Weather History Graph

Search for Another Location

Airport or City:

Astronomy

Jun. 06, 2019 Rise Set
Actual Time 5:14 AM EDT 8:20 PM EDT
Civil Twilight 4:40 AM EDT 8:54 PM EDT
Nautical Twilight 3:57 AM EDT 9:37 PM EDT
Astronomical Twilight 3:06 AM EDT 10:28 PM EDT
Moon 8:20 AM EDT (6/6) 11:35 PM EDT (6/6)
Length of Visible Light 16h 13m
Length of Day
15h 05m
Waxing Crescent, 13% of the Moon is Illuminated
Jun 6
Waxing Crescent
Jun 10
First Quarter
Jun 17
Full
Jun 25
Last Quarter
Jul 2
New

Hourly Weather History & Observations

Time (EDT) Temp. Heat Index Dew Point Humidity Pressure Visibility Wind Dir Wind Speed Gust Speed Precip Events Conditions
12:10 AM 68.0 °F - 64.9 °F 90% 29.73 in 8.0 mi SSW 12.7 mph - 0.00 in   Overcast
12:52 AM 69.1 °F - 66.0 °F 90% 29.71 in 8.0 mi SW 10.4 mph - 0.00 in   Overcast
1:52 AM 69.1 °F - 66.0 °F 90% 29.69 in 10.0 mi SSW 8.1 mph - 0.00 in   Overcast
2:28 AM 69.1 °F - 66.0 °F 90% 29.69 in 8.0 mi SW 6.9 mph 17.3 mph N/A   Overcast
2:52 AM 69.1 °F - 64.9 °F 87% 29.68 in 10.0 mi SSW 6.9 mph - 0.00 in Rain Light Rain
3:07 AM 68.0 °F - 64.9 °F 90% 29.68 in 10.0 mi SSW 9.2 mph - 0.00 in   Overcast
3:52 AM 68.0 °F - 66.0 °F 93% 29.66 in 9.0 mi SSW 5.8 mph - 0.00 in   Overcast
4:52 AM 69.1 °F - 66.0 °F 90% 29.65 in 8.0 mi SSW 5.8 mph - N/A   Overcast
5:37 AM 69.1 °F - 66.0 °F 90% 29.66 in 10.0 mi South 8.1 mph - 0.00 in Rain Light Rain
5:52 AM 68.0 °F - 66.0 °F 93% 29.66 in 10.0 mi SSW 4.6 mph - 0.00 in   Overcast
6:49 AM 69.8 °F - 66.2 °F 88% 29.65 in 10.0 mi SSW 6.9 mph - N/A   Overcast
6:52 AM 69.1 °F - 66.0 °F 90% 29.65 in 10.0 mi SSW 6.9 mph - N/A   Overcast
7:31 AM 69.1 °F - 66.0 °F 90% 29.66 in 10.0 mi SW 4.6 mph - N/A   Overcast
7:52 AM 70.0 °F - 66.0 °F 87% 29.66 in 10.0 mi SSW 5.8 mph - N/A   Overcast
8:30 AM 72.0 °F - 66.0 °F 81% 29.67 in 10.0 mi WSW 5.8 mph - N/A   Overcast
8:52 AM 72.0 °F - 66.0 °F 81% 29.67 in 10.0 mi WSW 3.5 mph - N/A   Overcast
9:34 AM 75.0 °F - 64.9 °F 71% 29.68 in 10.0 mi NW 11.5 mph - N/A   Overcast
9:52 AM 75.9 °F - 63.0 °F 64% 29.67 in 10.0 mi NW 11.5 mph 17.3 mph N/A   Overcast
10:52 AM 75.9 °F - 62.1 °F 62% 29.69 in 10.0 mi NW 8.1 mph - N/A   Overcast
11:52 AM 78.1 °F - 62.1 °F 58% 29.70 in 10.0 mi North 12.7 mph - N/A   Mostly Cloudy
12:52 PM 75.9 °F - 62.1 °F 62% 29.72 in 10.0 mi NNW 11.5 mph 19.6 mph N/A   Overcast
1:52 PM 81.0 °F 81.6 °F 60.1 °F 49% 29.72 in 10.0 mi North 11.5 mph - N/A   Partly Cloudy
2:52 PM 80.1 °F 80.4 °F 57.0 °F 45% 29.73 in 10.0 mi NNW 11.5 mph - N/A   Mostly Cloudy
3:52 PM 80.1 °F 80.6 °F 57.9 °F 47% 29.73 in 10.0 mi NNW 8.1 mph - N/A   Mostly Cloudy
4:52 PM 81.0 °F 81.6 °F 60.1 °F 49% 29.74 in 10.0 mi NNW 4.6 mph - N/A   Overcast
5:52 PM 79.0 °F - 61.0 °F 54% 29.75 in 10.0 mi NW 4.6 mph - N/A   Overcast
6:52 PM 81.0 °F 81.6 °F 60.1 °F 49% 29.77 in 10.0 mi North 5.8 mph - N/A   Overcast
7:52 PM 73.9 °F - 64.0 °F 71% 29.78 in 10.0 mi South 10.4 mph - N/A   Overcast
8:52 PM 69.1 °F - 62.1 °F 78% 29.81 in 10.0 mi SSW 4.6 mph - N/A   Overcast
9:52 PM 68.0 °F - 60.1 °F 76% 29.85 in 10.0 mi SSW 4.6 mph - N/A   Overcast
10:52 PM 66.0 °F - 60.1 °F 81% 29.86 in 10.0 mi Calm Calm - N/A   Overcast
11:52 PM 64.9 °F - 60.1 °F 84% 29.86 in 10.0 mi SSE 3.5 mph - N/A   Mostly Cloudy